Terug naar catalogus

SL-16 DEB

ActiefLEO
NORAD 26077·DEBRIS·🇷🇺 Russia

Gelanceerd Feb 3, 2000 vanaf Baikonur Cosmodrome

Loading…

Volgende Passages (komende 24 uur)

TLE

VersSource: Space-Track

Epoch: Sep 14, 2026, 05:52 UTC

1 26077U 00006G   26257.24461475  .00000081  00000-0  11459-3 0  9995
2 26077  70.9714 353.9783 0203684  21.3507   5.5283 13.73342934333226

Volg SL-16 DEB in realtime met AllMySat

Download on the App Store